Haines, AK

7:24 PM AKST on February 22, 2017 (GMT -0900)
Haines

Weather History for PAHN - November, 2011

Change the Weather History Date:

Thursday, November 10, 2011

  Actual Average Record
Temperature  
Mean Temperature 32 °F -  
Max Temperature 37 °F 36 °F 50 °F (1981)
Min Temperature 27 °F 29 °F 2 °F (1989)
Degree Days  
Heating Degree Days 33    
Moisture  
Dew Point 31 °F    
Average Humidity 94    
Maximum Humidity 100    
Minimum Humidity 89    
Precipitation  
Precipitation 0.34 in - - ()
Sea Level Pressure  
Sea Level Pressure 29.46 in    
Wind  
Wind Speed 10 mph (NW)    
Max Wind Speed 16 mph    
Max Gust Speed 28 mph    
Visibility 6 miles    
Events Rain , Snow    
Averages and records for this station are not official NWS values.
T = Trace of Precipitation, MM = Missing Value Source: NWS Daily Summary

Daily Weather History Graph

Daily Weather History Graph

Search for Another Location

Airport or City:

Trip Planner

Search our weather history database for the weather conditions in past years. The results will help you decide how hot, cold, wet, or windy it might be!

Date:

Astronomy

Nov. 10, 2011 Rise Set
Actual Time 7:43 AM AKST 3:47 PM AKST
Civil Twilight 6:57 AM AKST 4:34 PM AKST
Nautical Twilight 6:07 AM AKST 5:23 PM AKST
Astronomical Twilight 5:19 AM AKST 6:11 PM AKST
Moon 3:22 PM AKST (11/10) 7:58 AM AKST (11/10)
Length of Visible Light 9h 37m
Length of Day
8h 04m
Full, 100% of the Moon is Illuminated
Nov 10
Full
Nov 18
Last Quarter
Nov 24
New
Dec 2
First Quarter
Dec 10
Full

Hourly Weather History & Observations

Time (AKST) Temp. Windchill Dew Point Humidity Pressure Visibility Wind Dir Wind Speed Gust Speed Precip Events Conditions
12:31 AM 28.4 °F 19.7 °F 26.6 °F 93% 29.76 in 10.0 mi WNW 9.2 mph - N/A   Overcast
12:54 AM 27.0 °F 17.3 °F 26.1 °F 96% 29.76 in 10.0 mi WNW 10.4 mph - N/A   Overcast
1:54 AM 28.0 °F 22.8 °F 27.0 °F 96% 29.74 in 10.0 mi WSW 4.6 mph - N/A   Overcast
2:54 AM 28.0 °F 20.0 °F 27.0 °F 96% 29.73 in 10.0 mi WNW 8.1 mph - N/A   Overcast
3:22 AM 28.4 °F 19.1 °F 26.6 °F 93% 29.71 in 2.0 mi WNW 10.4 mph - 0.00 in Snow Light Snow
3:54 AM 28.0 °F 18.1 °F 26.1 °F 92% 29.71 in 2.5 mi WNW 11.5 mph - 0.00 in Snow Light Snow
4:12 AM 28.4 °F 18.5 °F 26.6 °F 93% 29.69 in 4.0 mi WNW 11.5 mph - 0.00 in Snow Light Snow
4:54 AM 28.0 °F 18.1 °F 26.1 °F 92% 29.69 in 7.0 mi WNW 11.5 mph - 0.01 in   Overcast
5:54 AM 28.0 °F 18.1 °F 26.1 °F 92% 29.68 in 10.0 mi WNW 11.5 mph - 0.00 in   Overcast
6:54 AM 28.0 °F 17.5 °F 26.1 °F 92% 29.66 in 6.0 mi WNW 12.7 mph - 0.00 in   Overcast
7:54 AM 28.9 °F 20.4 °F 28.0 °F 96% 29.63 in 9.0 mi West 9.2 mph - 0.00 in   Overcast
8:54 AM 28.9 °F 21.1 °F 28.0 °F 96% 29.61 in 10.0 mi WNW 8.1 mph - 0.00 in   Overcast
9:54 AM 30.0 °F 26.5 °F 28.9 °F 96% 29.57 in 10.0 mi NW 3.5 mph - 0.00 in   Overcast
10:54 AM 36.0 °F 28.0 °F 34.0 °F 93% 29.53 in 10.0 mi ENE 11.5 mph 19.6 mph 0.00 in Rain Light Rain
11:54 AM 37.0 °F 29.8 °F 34.0 °F 89% 29.50 in 10.0 mi East 10.4 mph 18.4 mph 0.00 in Rain Light Rain
12:54 PM 36.0 °F 29.0 °F 34.0 °F 93% 29.46 in 10.0 mi East 9.2 mph 18.4 mph 0.00 in Rain Light Rain
1:54 PM 37.0 °F 29.3 °F 34.0 °F 89% 29.40 in 10.0 mi East 11.5 mph 23.0 mph 0.01 in Rain Light Rain
2:54 PM 36.0 °F 27.5 °F 33.1 °F 89% 29.36 in 6.0 mi ENE 12.7 mph 24.2 mph 0.05 in Rain Light Rain
3:54 PM 36.0 °F 27.5 °F 34.0 °F 93% 29.32 in 6.0 mi ENE 12.7 mph 19.6 mph 0.06 in Rain Light Rain
4:54 PM 36.0 °F 27.1 °F 33.1 °F 89% 29.30 in 5.0 mi ENE 13.8 mph 27.6 mph 0.08 in Rain Light Rain
5:24 PM 35.6 °F 27.1 °F 33.8 °F 93% 29.28 in 6.0 mi ENE 12.7 mph 20.7 mph 0.01 in Rain Light Rain
5:54 PM 37.0 °F 29.3 °F 34.0 °F 89% 29.29 in 8.0 mi ENE 11.5 mph 19.6 mph 0.01 in Rain Light Rain
6:54 PM 36.0 °F 32.1 °F 35.1 °F 97% 29.29 in 4.0 mi East 4.6 mph - 0.01 in Rain Light Rain
7:35 PM 33.8 °F 27.0 °F 32.0 °F 93% 29.29 in 5.0 mi WNW 8.1 mph - 0.01 in Snow Light Snow
7:39 PM 32.0 °F 24.2 °F 32.0 °F 100% 29.29 in 2.5 mi WNW 9.2 mph - 0.01 in Snow Light Snow
7:49 PM 33.8 °F 26.4 °F 32.0 °F 93% 29.29 in 2.5 mi WNW 9.2 mph - 0.02 in Snow Light Snow
7:54 PM 32.0 °F 23.6 °F 32.0 °F 100% 29.30 in 2.0 mi WNW 10.4 mph - 0.02 in Snow Light Snow
8:03 PM 32.0 °F 24.2 °F 32.0 °F 100% 29.29 in 1.8 mi WNW 9.2 mph - 0.01 in Snow Light Snow
8:54 PM 33.1 °F 26.9 °F 32.0 °F 96% 29.32 in 1.8 mi WNW 6.9 mph - 0.04 in Snow Light Snow
9:05 PM 32.0 °F 24.8 °F 32.0 °F 100% 29.31 in 1.8 mi WNW 8.1 mph - 0.00 in Snow Light Snow
9:13 PM 32.0 °F 24.2 °F 32.0 °F 100% 29.32 in 2.0 mi West 9.2 mph - 0.00 in Snow Light Snow
9:24 PM 32.0 °F 24.2 °F 30.2 °F 93% 29.32 in 1.8 mi WNW 9.2 mph - 0.01 in Snow Light Snow
9:54 PM 32.0 °F 23.0 °F 30.9 °F 96% 29.34 in 1.2 mi WNW 11.5 mph - 0.02 in Snow Light Snow
10:19 PM 32.0 °F 23.0 °F 30.2 °F 93% 29.35 in 1.0 mi WNW 11.5 mph - 0.01 in Snow Light Snow
10:41 PM 33.8 °F 25.3 °F 32.0 °F 93% 29.36 in 2.0 mi WNW 11.5 mph - 0.02 in Snow Light Snow
10:54 PM 33.1 °F 23.9 °F 32.0 °F 96% 29.37 in 2.5 mi NW 12.7 mph - 0.02 in Snow Light Snow
11:01 PM 33.8 °F 25.3 °F 32.0 °F 93% 29.36 in 3.0 mi WNW 11.5 mph - 0.00 in Snow Light Snow
11:16 PM 33.8 °F 25.8 °F 32.0 °F 93% 29.37 in 5.0 mi WNW 10.4 mph - 0.00 in Snow Light Snow
11:54 PM 33.1 °F 22.6 °F 32.0 °F 96% 29.40 in 3.0 mi NW 16.1 mph 21.9 mph 0.01 in Snow Light Snow